Location: Bydgoszcz
(53.1222°N, 17.9945°E)
Time: 13:51:24
(UTC+02:00)

ISS - Visible Passes

Search period start: 19 October 2019 00:00
Search period end: 28 October 2019 23:00
Orbit: 411 x 421 km, 51.6° (Epoch: 19 October)

Date Brightness Start Highest point End Pass type
(mag) Time Alt. Az. Time Alt. Az. Time Alt. Az.
24 Oct -0.8 06:51:45 10° S 06:53:41 15° SE 06:55:37 10° ESE visible
26 Oct -1.6 06:49:58 10° SSW 06:52:52 26° SSE 06:55:44 10° E visible
27 Oct -1.3 05:01:55 10° SSW 05:04:25 19° SSE 05:06:54 10° E visible
28 Oct -1.0 04:14:43 12° SSE 04:16:00 14° SE 04:17:48 10° ESE visible
28 Oct -2.7 05:48:54 10° SW 05:52:07 43° SSE 05:55:20 10° E visible
